[[{"header":{"parameterUnit":"m.s-1","parameterCategory":1,"la1":30.2991,"la2":30.254,"lo1":-89.0895,"lo2":-89.0444,"dy":0.0017,"dx":0.0017,"nx":28,"ny":28,"refTime":"2023-04-25T21:00:00:Z","depth":0,"parameterNumber":2,"parameterNumberName":"U-component_of_WINDS"},"data":[0,0,0,0,0,0,0,0,0,0,0,0,0,0,0,0,0,0,0,0,0,0,0,0,0,0,0,0,0,0,0,0,0,0,0,0,0,0,0,0,0,0,0,0,0,0,0,0,0,0,0,0,0,0,0,0,0,0,-1.7919,-1.7918,0,-1.7847,-1.7846,-1.7845,-1.7723,-1.7721,-1.7719,-1.7717,-1.7646,-1.7646,-1.7647,0,0,0,0,0,0,0,0,0,0,0,0,0,-1.7953,-1.7953,-1.7919,-1.7918,-1.7917,-1.7847,-1.7846,-1.7845,-1.7724,-1.7721,-1.7718,-1.7716,-1.7646,-1.7646,-1.7647,0,0,0,0,0,0,0,0,0,0,0,0,0,-1.7916,-1.7953,-1.7919,-1.7848,-1.7841,-1.7847,-1.7846,-1.7845,-1.7724,-1.7721,-1.7717,-1.7714,-1.7646,-1.7646,-1.7647,-1.7717,0,0,-1.7648,-1.7648,0,0,0,0,0,0,0,0,-1.7918,-1.7915,-1.786,-1.7853,-1.7845,-1.7791,-1.7832,-1.7802,-1.7725,-1.7769,-1.7717,-1.7713,-1.7697,-1.7693,-1.7687,-1.7714,-1.7711,-1.7648,-1.7648,-1.7648,-1.7648,0,0,0,0,0,0,0,-1.7921,-1.7917,-1.7891,-1.7859,-1.785,-1.782,-1.7811,-1.7826,-1.7753,-1.7765,-1.7756,-1.7749,-1.7693,-1.7687,-1.7685,-1.771,-1.7648,-1.7648,-1.7648,-1.7648,-1.779,-1.7794,0,0,0,0,0,0,-1.7934,-1.792,-1.7893,-1.7888,-1.7874,-1.7823,-1.7812,-1.7812,-1.7753,-1.774,-1.7752,-1.7743,-1.7688,-1.7684,-1.7682,-1.776,-1.7648,-1.7649,-1.7649,-1.7787,-1.7791,-1.7795,0,0,0,0,0,0,-1.7935,-1.7932,-1.7896,-1.7902,-1.7895,-1.7826,-1.7826,-1.7812,-1.7806,-1.7743,-1.7729,-1.7759,-1.7685,-1.7681,-1.7709,-1.7756,-1.7649,-1.7649,-1.7783,-1.7788,-1.7793,-1.7919,0,0,0,0,0,0,-1.7936,-1.7934,-1.7959,-1.7903,-1.7895,-1.7924,-1.7829,-1.7813,-1.7807,-1.7795,-1.7746,-1.7735,-1.7682,-1.7709,-1.7709,-1.7755,-1.7649,-1.7778,-1.7785,-1.7791,-1.791,-1.7928,-1.7943,0,0,0,0,0,-1.7938,-1.7999,-1.7961,-1.7959,-1.7926,-1.7927,-1.7923,-1.786,-1.7811,-1.7837,-1.7796,-1.7737,-1.7751,-1.7713,-1.7712,-1.7759,-1.7775,-1.7783,-1.7791,-1.7903,-1.7924,-1.7942,0,0,0,0,0,0,-1.8064,-1.799,-1.7948,-1.7992,-1.7967,-1.7907,-1.7937,-1.7885,-1.7873,-1.7863,-1.7786,-1.7776,-1.7814,-1.7789,-1.7748,-1.7823,-1.7754,-1.7762,-1.7839,-1.7859,-1.7875,-1.7881,-1.765,0,0,0,0,0,-1.8096,-1.8103,-1.8038,-1.8083,-1.8072,-1.8007,-1.8006,-1.7959,-1.793,-1.7919,-1.788,-1.7855,-1.7854,-1.7855,-1.785,-1.7905,-1.7893,-1.7937,-1.7953,-1.7967,-1.7975,-1.8002,-1.8021,-1.7821,-1.7821,-1.7821,0,0,-1.8164,-1.8124,-1.8134,-1.8107,-1.8082,-1.8091,-1.7999,-1.8013,-1.8019,-1.7922,-1.7945,-1.7916,-1.7883,-1.7925,-1.7941,-1.7905,-1.8027,-1.7977,-1.7988,-1.7989,-1.8012,-1.8031,-1.8048,-1.7827,-1.7826,-1.7825,0,0,-1.8292,-1.8263,-1.8297,-1.8273,-1.8236,-1.8192,-1.82,-1.8148,-1.8124,-1.8146,-1.8073,-1.8079,-1.8079,-1.8058,-1.8047,-1.8166,-1.8111,-1.8167,-1.8253,-1.828,-1.8296,-1.8309,-1.8352,-1.8368,-1.8175,-1.8175,-1.8176,0,-1.8382,-1.8391,-1.8321,-1.8339,-1.833,-1.824,-1.8275,-1.8255,-1.8219,-1.8215,-1.8174,-1.817,-1.8142,-1.8178,-1.8206,-1.8201,-1.8208,-1.8173,-1.8299,-1.8312,-1.8323,-1.8363,-1.8379,-1.8182,-1.8182,-1.8181,-1.818,0,-1.8503,-1.8511,-1.8543,-1.8509,-1.8503,-1.8529,-1.8464,-1.8466,-1.842,-1.8381,-1.8404,-1.8366,-1.8352,-1.8357,-1.8312,-1.8386,-1.8364,-1.8313,-1.8241,-1.835,-1.8387,-1.8401,-1.8192,-1.819,-1.8188,-1.8186,0,0,-1.871,-1.8635,-1.8648,-1.8631,-1.8583,-1.8588,-1.861,-1.8595,-1.8599,-1.8576,-1.8593,-1.8594,-1.8544,-1.8533,-1.8485,-1.8509,-1.8605,-1.8453,-1.8451,-1.8483,-1.8684,-1.8724,-1.8743,-1.8568,-1.8571,-1.8573,-1.8687,0,-1.8829,-1.8861,-1.8798,-1.8846,-1.8852,-1.8767,-1.8786,-1.8759,-1.8722,-1.8723,-1.8682,-1.8684,-1.8619,-1.8611,-1.8631,-1.859,-1.8645,-1.858,-1.8584,-1.8585,-1.8595,-1.8762,-1.8804,-1.8914,-1.8701,-1.8703,-1.8705,0,-1.8972,-1.8955,-1.9004,-1.8951,-1.8951,-1.897,-1.895,-1.8952,-1.8919,-1.889,-1.8877,-1.882,-1.8838,-1.8768,-1.8792,-1.875,-1.8747,-1.8727,-1.8729,-1.8728,-1.8652,-1.8766,-1.8947,-1.8964,-1.8726,-1.8724,-1.8723,0,-1.9118,-1.9108,-1.9135,-1.9123,-1.9063,-1.9078,-1.9053,-1.9017,-1.9012,-1.8995,-1.899,-1.8976,-1.8969,-1.896,-1.8901,-1.8855,-1.8932,-1.8857,-1.8909,-1.8911,-1.893,-1.893,-1.9115,-1.8928,-1.8928,-1.8927,-1.8927,0,-1.9257,-1.9291,-1.92,-1.9217,-1.9251,-1.9178,-1.9215,-1.9182,-1.915,-1.9159,-1.9085,-1.9095,-1.9016,-1.9018,-1.8972,-1.8999,-1.8996,-1.8974,-1.8962,-1.8981,-1.8984,-1.8979,-1.897,-1.8932,-1.8931,-1.893,-1.8929,0,-1.9427,-1.9368,-1.9392,-1.9332,-1.9318,-1.9346,-1.9295,-1.9309,-1.9266,-1.9279,-1.9278,-1.9213,-1.9211,-1.9151,-1.9137,-1.9106,-1.9152,-1.9125,-1.9163,-1.9155,-1.921,-1.9206,-1.9399,-1.9421,-1.922,-1.9222,-1.9224,0,-1.9521,-1.9544,-1.9486,-1.9487,-1.9466,-1.9467,-1.9461,-1.939,-1.9386,-1.935,-1.9368,-1.936,-1.935,-1.9351,-1.9303,-1.9292,-1.9264,-1.9333,-1.9262,-1.9281,-1.9266,-1.9265,-1.9267,-1.9348,-1.9351,-1.9353,-1.9354,0,-1.9693,-1.9662,-1.9655,-1.9638,-1.9632,-1.9616,-1.9595,-1.9599,-1.9521,-1.9521,-1.9518,-1.951,-1.9495,-1.9488,-1.9468,-1.9443,-1.9386,-1.9377,-1.9388,-1.9409,-1.943,-1.9419,-1.9204,-1.9373,-1.9371,-1.937,-1.9369,-1.9368,-1.9827,-1.9843,-1.9805,-1.98,-1.9776,-1.9758,-1.9767,-1.9726,-1.9722,-1.9703,-1.9661,-1.9665,-1.963,-1.9597,-1.9577,-1.9579,-1.9544,-1.9561,-1.9565,-1.9571,-1.9582,-1.9429,-1.9575,-1.9574,-1.9574,-1.9573,-1.9573,0,-1.9995,-1.9966,-1.9962,-1.9934,-1.993,-1.9875,-1.9849,-1.9849,-1.9853,-1.9825,-1.9816,-1.9812,-1.9805,-1.9755,-1.9742,-1.9753,-1.9727,-1.9753,-1.9751,-1.9747,-1.9613,-1.9605,-1.9774,-1.9774,-1.9774,-1.9774,-1.9774,-1.9774,-2.0083,-2.0107,-2.0072,-2.0084,-2.0054,-2.0056,-2.0046,-2.0029,-2.0006,-2.0005,-1.9998,-1.9965,-1.9928,-1.9912,-1.9903,-1.9888,-1.9887,-1.9921,-1.9899,-1.9775,-1.9756,-1.9738,-1.9729,-1.9922,-1.9922,-2.0031,-2.0032,-2.0033]},{"header":{"parameterUnit":"m.s-1","parameterCategory":1,"la1":30.2991,"la2":30.254,"lo1":-89.0895,"lo2":-89.0444,"dy":0.0017,"dx":0.0017,"nx":28,"ny":28,"refTime":"2023-04-25T21:00:00:Z","depth":0,"parameterNumber":3,"parameterNumberName":"V-component_of_WINDS"},"data":[0,0,0,0,0,0,0,0,0,0,0,0,0,0,0,0,0,0,0,0,0,0,0,0,0,0,0,0,0,0,0,0,0,0,0,0,0,0,0,0,0,0,0,0,0,0,0,0,0,0,0,0,0,0,0,0,0,0,-1.0498,-1.0498,0,-1.0544,-1.0544,-1.0545,-1.0568,-1.0568,-1.0568,-1.0568,-1.0614,-1.0616,-1.0617,0,0,0,0,0,0,0,0,0,0,0,0,0,-1.0428,-1.0429,-1.0498,-1.0498,-1.0499,-1.0544,-1.0544,-1.0545,-1.0568,-1.0568,-1.0568,-1.0568,-1.0614,-1.0615,-1.0617,0,0,0,0,0,0,0,0,0,0,0,0,0,-1.0465,-1.043,-1.0498,-1.0516,-1.0518,-1.0544,-1.0544,-1.0545,-1.0568,-1.0568,-1.0568,-1.0568,-1.0614,-1.0615,-1.0617,-1.0627,0,0,-1.0623,-1.0623,0,0,0,0,0,0,0,0,-1.0463,-1.0467,-1.0513,-1.0515,-1.0517,-1.055,-1.0537,-1.0573,-1.0568,-1.0549,-1.0568,-1.0569,-1.0593,-1.0596,-1.0605,-1.063,-1.0632,-1.0623,-1.0624,-1.0625,-1.0625,0,0,0,0,0,0,0,-1.046,-1.0465,-1.0516,-1.0513,-1.0516,-1.0521,-1.0527,-1.0544,-1.057,-1.0551,-1.0553,-1.0558,-1.0594,-1.0603,-1.0606,-1.0632,-1.0623,-1.0624,-1.0625,-1.0626,-1.0667,-1.0667,0,0,0,0,0,0,-1.0455,-1.0463,-1.0514,-1.0517,-1.0489,-1.0523,-1.0528,-1.054,-1.057,-1.0575,-1.0558,-1.0559,-1.06,-1.0604,-1.0608,-1.0622,-1.0625,-1.0626,-1.0627,-1.0667,-1.0667,-1.0667,0,0,0,0,0,0,-1.0453,-1.0459,-1.0513,-1.0491,-1.0498,-1.0524,-1.0536,-1.0541,-1.055,-1.0575,-1.058,-1.0562,-1.06,-1.0605,-1.0622,-1.0624,-1.0627,-1.0629,-1.0667,-1.0667,-1.0667,-1.0649,0,0,0,0,0,0,-1.0451,-1.0458,-1.0463,-1.0491,-1.0499,-1.0527,-1.0536,-1.0541,-1.0553,-1.0555,-1.0581,-1.0585,-1.0601,-1.0619,-1.0624,-1.0626,-1.063,-1.0667,-1.0667,-1.0667,-1.065,-1.0649,-1.0648,0,0,0,0,0,-1.0448,-1.0456,-1.0463,-1.0469,-1.0506,-1.0527,-1.0532,-1.055,-1.0553,-1.0558,-1.0574,-1.0584,-1.0623,-1.0621,-1.0626,-1.0629,-1.0667,-1.0667,-1.0667,-1.065,-1.0649,-1.0648,0,0,0,0,0,0,-1.0428,-1.046,-1.0468,-1.0486,-1.0503,-1.0531,-1.0537,-1.0548,-1.0565,-1.0565,-1.0587,-1.0592,-1.0607,-1.062,-1.0617,-1.064,-1.0646,-1.0647,-1.0631,-1.063,-1.0629,-1.0626,-1.0632,0,0,0,0,0,-1.0426,-1.0441,-1.0468,-1.048,-1.0489,-1.0511,-1.0521,-1.0534,-1.0553,-1.056,-1.0578,-1.0596,-1.0611,-1.0622,-1.0638,-1.0652,-1.0657,-1.0656,-1.0655,-1.0654,-1.0655,-1.0662,-1.0662,-1.0667,-1.0667,-1.0667,0,0,-1.0421,-1.044,-1.0448,-1.0477,-1.0492,-1.0506,-1.0518,-1.0533,-1.0543,-1.0562,-1.058,-1.0593,-1.0614,-1.0629,-1.0637,-1.064,-1.0654,-1.0654,-1.0653,-1.0654,-1.0662,-1.0662,-1.0661,-1.0667,-1.0667,-1.0667,0,0,-1.0419,-1.0436,-1.0448,-1.0463,-1.0485,-1.05,-1.0503,-1.0529,-1.0538,-1.0556,-1.057,-1.0583,-1.061,-1.0624,-1.0635,-1.0637,-1.0647,-1.0642,-1.0636,-1.0643,-1.0643,-1.0643,-1.0643,-1.0643,-1.0643,-1.0642,-1.0642,0,-1.041,-1.0433,-1.0452,-1.0467,-1.0478,-1.0496,-1.0508,-1.0521,-1.0548,-1.0555,-1.0559,-1.0592,-1.0608,-1.0626,-1.0627,-1.0635,-1.0638,-1.0639,-1.0642,-1.0642,-1.0642,-1.0642,-1.0642,-1.0642,-1.0642,-1.0642,-1.0642,0,-1.0421,-1.0436,-1.0443,-1.0468,-1.0481,-1.0494,-1.0514,-1.0524,-1.0535,-1.0549,-1.0566,-1.0585,-1.0605,-1.061,-1.0621,-1.063,-1.0631,-1.0638,-1.0644,-1.064,-1.0641,-1.0641,-1.064,-1.0641,-1.0641,-1.0641,0,0,-1.0409,-1.0444,-1.0446,-1.0457,-1.0483,-1.0495,-1.0508,-1.0528,-1.0536,-1.0554,-1.0565,-1.0587,-1.0593,-1.0605,-1.0617,-1.0623,-1.0623,-1.0629,-1.063,-1.0627,-1.0634,-1.0628,-1.0628,-1.063,-1.063,-1.063,-1.0632,0,-1.0411,-1.0436,-1.0453,-1.0471,-1.0485,-1.0501,-1.0512,-1.0529,-1.0542,-1.0556,-1.057,-1.0585,-1.0592,-1.06,-1.0607,-1.0622,-1.0625,-1.0622,-1.064,-1.064,-1.0634,-1.0629,-1.0624,-1.0624,-1.0632,-1.0632,-1.0632,0,-1.0417,-1.0434,-1.0453,-1.0477,-1.0483,-1.0493,-1.0512,-1.0525,-1.0543,-1.0552,-1.0565,-1.0578,-1.0592,-1.0596,-1.0615,-1.0612,-1.062,-1.0629,-1.0629,-1.0632,-1.0636,-1.0631,-1.0625,-1.0625,-1.0633,-1.0633,-1.0633,0,-1.0405,-1.0433,-1.0448,-1.0457,-1.0485,-1.0492,-1.0503,-1.0522,-1.0533,-1.0549,-1.0556,-1.0573,-1.0583,-1.0596,-1.0612,-1.0614,-1.0629,-1.0635,-1.0636,-1.0635,-1.0639,-1.0638,-1.0633,-1.0644,-1.0644,-1.0644,-1.0644,0,-1.0406,-1.0417,-1.0443,-1.0453,-1.0465,-1.0484,-1.0496,-1.0509,-1.0525,-1.0537,-1.0552,-1.0562,-1.0583,-1.0596,-1.0608,-1.0622,-1.0626,-1.0633,-1.0636,-1.0632,-1.0631,-1.0637,-1.0638,-1.0644,-1.0644,-1.0644,-1.0644,0,-1.0396,-1.0414,-1.0431,-1.0456,-1.0462,-1.047,-1.0491,-1.05,-1.0514,-1.0528,-1.0533,-1.0554,-1.0569,-1.0587,-1.0608,-1.0617,-1.0629,-1.0634,-1.0623,-1.0624,-1.0625,-1.0624,-1.0624,-1.0625,-1.0635,-1.0635,-1.0634,0,-1.0395,-1.0404,-1.043,-1.0438,-1.045,-1.0464,-1.0474,-1.0493,-1.0503,-1.0525,-1.0531,-1.0547,-1.0562,-1.0586,-1.0603,-1.0619,-1.0624,-1.0623,-1.0626,-1.0621,-1.0623,-1.0623,-1.0623,-1.0621,-1.0621,-1.0621,-1.0621,0,-1.0392,-1.04,-1.0415,-1.0432,-1.0445,-1.0459,-1.0475,-1.0481,-1.0502,-1.0513,-1.0529,-1.054,-1.0561,-1.0577,-1.0595,-1.0607,-1.0617,-1.062,-1.0621,-1.0616,-1.0609,-1.0612,-1.0619,-1.062,-1.062,-1.062,-1.062,-1.062,-1.0386,-1.0395,-1.0413,-1.0429,-1.0443,-1.0456,-1.0466,-1.048,-1.0494,-1.0513,-1.0523,-1.0539,-1.0556,-1.0581,-1.0592,-1.0604,-1.0608,-1.061,-1.061,-1.061,-1.0609,-1.0607,-1.0608,-1.0608,-1.0608,-1.0608,-1.0608,0,-1.0383,-1.0396,-1.041,-1.0431,-1.0443,-1.0452,-1.0469,-1.0478,-1.0492,-1.0507,-1.0521,-1.0539,-1.0554,-1.0572,-1.0588,-1.0594,-1.0599,-1.0598,-1.0598,-1.06,-1.0605,-1.0602,-1.0594,-1.0594,-1.0594,-1.0594,-1.0594,-1.0594,-1.0383,-1.0398,-1.0408,-1.0428,-1.0441,-1.0457,-1.0465,-1.0478,-1.049,-1.051,-1.0522,-1.0534,-1.055,-1.0567,-1.0581,-1.0586,-1.0591,-1.0588,-1.0594,-1.0598,-1.06,-1.0601,-1.0598,-1.0589,-1.0589,-1.0588,-1.0588,-1.0588]}]]